◎C/2005 E1の軌道と予報位置です   (From YC 2463 & 2464)

  キットピ−クの91-cmスペ−スウォッチ望遠鏡で2005年3月3日におとめ座を

撮影したCCDフレーム上の次の位置に20等級の微光の彗星を発見したことが,ツ

ビオロ(A. F. Tubbiolo)から報告された.発見当時と翌4日の画像には,彗星

には北西にのびる約13"の尾が見られた.また,同4日のスクラントン(米国)

のハグ(G. Hug, Scranton)の30-cm反射での観測では,彗星の核光度は20.5等,

ハレアカラの2-m反射による観測でも,彗星には尾が見られること,さらに,ク

レット(M. Tichy & J. Ticha, Klet)の1.06-m反射でも,天体が彗星であるこ

とが確認された(IAUC 8491).



   2005 UT             α     (2000)     δ           Mag.

   Mar.  3.25502   11h 48m 54s.36   +02゚ 34' 40".5    20.9



  OAA計算課では,2005年3月3日から7日までに行なわれた17個の観測から次

の軌道を決定した.彗星は,短周期彗星であるかも知れない.なお,同じ観測群

から計算されたIAUC 8491の軌道は,別の軌道解を拾っているのだろう.

                                       。

   T = 2004 July 18.467 TT    ω = 113.701

                               Ω =   8.269    (2000.0)

   q =   3.08484 AU           i =   3.530



2005/        α  (2000) δ      △      r      Elong. Phase    m1 

  0h TT     h  m       。  ,        AU      AU      。      。      等

Mar. 11   11 45.23  +02 51.9    2.834   3.824   174.8    1.3   19.6

     21   11 40.46  +03 13.8    2.888   3.880   173.7    1.6   19.7

     31   11 36.11  +03 32.6    2.971   3.936   162.8    4.3   19.8

Apr. 10   11 32.60  +03 45.9    3.081   3.994   152.1    6.8   20.0

     20   11 30.25  +03 52.1    3.216   4.052   141.7    8.8   20.1

     30   11 29.20  +03 50.4    3.372   4.112   131.7   10.5   20.3

May  10   11 29.52  +03 40.6    3.546   4.172   122.2   11.8   20.5

     20   11 31.18  +03 22.8    3.734   4.233   113.0   12.7   20.6

     30   11 34.07  +02 57.7    3.932   4.295   104.3   13.2   20.8

June  9   11 38.08  +02 25.9    4.137   4.358    95.8   13.4   21.0 

                    m1 = 11.5 + 5 log △ + 10.0 log r



  山本速報2463で予想したとおり,この彗星は,周期が20年ほどの新周期彗星

であった.OAA計算課では,2005年3月3日から18日までに行なわれた28個の観

測から次の軌道を決定した.なお,3月の位置予報は,同号にある(cf. YC 24

63).



   T = 2005 Feb. 15.199 TT

   ω = 166o.737                  e =   0.39555

   Ω =   4.577    (2000.0)       a =   7.29878 AU

   i =   5.059                   n゚=   0.049984

   q =   4.41174 AU              P =  19.7 年



2005/        α  (2000) δ      △      r      Elong. Phase    m1 

  0h TT     h  m       。  ,        AU      AU      。      。      等

Apr. 10   11 31.51  +03 51.7    3.512   4.420   151.8    6.2   19.2

     20   11 28.40  +04 01.9    3.596   4.424   141.2    8.2   19.2

     30   11 26.47  +04 04.6    3.701   4.428   131.0    9.9   19.3

May  10   11 25.84  +03 59.5    3.825   4.433   121.2   11.2   19.4 

                    m1 = 10.0 + 5 log △ + 10.0 log r



    P/2005 E1 (Tubbiolo)                                                  

T 2005 Feb. 15.19937 TT                                 Nakano

q   4.4117399            (2000.0)            P               Q

n   0.04998370     Peri.  166.73718     -0.98846084     -0.15131311

a   7.2987826      Node     4.57733     +0.12968533     -0.86935359

e   0.3955513      Incl.    5.05878     +0.07827447     -0.47045582

P  19.72 (+/-84.28 day)

From 28 observations 2005 Mar. 3-18.

Residuals in seconds of arc 

2005/                     050304 691  0.5+  0.0     050314 372  0.2-  0.5-  

050303 691  0.1-  0.2+    050304 691  0.2+  0.1+    050314 372  0.6-  1.2-  

050303 691  0.1-  0.3-    050304 691  1.3+  0.2-    050318 213  0.5-  0.7+  

050303 691  0.4+  0.3+    050304 246  0.1-  0.8+    050318 213  0.6-  0.6+  

050304 H36  0.7-  0.2-    050304 246  2.1-  0.8+    050318 213  0.7-  0.5+  

050304 H36  1.4-  1.3+    050304 246  0.3-  0.3+    050318 213  0.5-  0.2+  

050304 F65  0.1+  0.4-    050307 850  0.5+  1.6-    050318 J76  1.0+  0.9-  

050304 F65  0.5+  0.5-    050307 850  2.0+  1.8-    050318 J76  0.6+  0.2-  

050304 F65  0.5+  0.5-    050309 213  0.4-  1.2+    050318 J76  1.0+  0.1+  

050304 F65  0.2+  0.1-    050309 213  0.7-  1.5+                            

NAKANO

         **** Don't distribute anyone except personal use only ****

                (C) Copyright 2005 OAA/ComputingSection

write mail from CFAD0::NAKANO on 2005-03-25 21:37:45(JST).

 



戻ります。